Biathlon ai XXI Giochi olimpici invernali - 20 km individuale maschile

Da Wikipedia, l'enciclopedia libera.
Bandiera olimpica Biathlon pictogram.svg
20 km individuale maschile
Vancouver 2010
Informazioni generali
Luogo Whistler Olympic Park
Periodo 18 febbraio
Partecipanti 88 da 32 nazioni
Podio
Medaglia d'oro Emil Hegle Svendsen Norvegia Norvegia
Medaglia d'argento Ole Einar Bjørndalen Norvegia Norvegia
Medaglia d'argento Sjarhej Novikaŭ Bielorussia Bielorussia
Edizione precedente e successiva
Torino 2006 Soči 2014
Biathlon ai
Giochi di Vancouver 2010
Biathlon pictogram.svg
Individuale maschile femminile
Sprint maschile femminile
Inseguimento maschile femminile
Partenza in linea maschile femminile
Staffetta   maschile   femminile

La competizione 20 km individuale maschile di biathlon ai XXI Giochi olimpici invernali si è svolta il 18 febbraio al Whistler Olympic Park presso Vancouver, in Canada.

Risultati[modifica | modifica wikitesto]

Pos. Pett. Atleta Nazione Tempo Penalità (P+S+P+S) Ritardo
Gold medal.svg 5 Emil Hegle Svendsen Norvegia Norvegia 48:22.5 1 (0+0+0+1)
Silver medal.svg 12 Ole Einar Bjørndalen Norvegia Norvegia 48:32.0 2 (0+1+0+1) +9.5
Silver medal.svg 27 Sjarhej Novikaŭ Bielorussia Bielorussia 48:32.0 0 (0+0+0+0) +9.5
04 4 6 Evgenij Ustjugov Russia Russia 49:11.8 1 (0+0+0+1) +49.3
05 5 11 Pavol Hurajt Slovacchia Slovacchia 49:39.0 1 (0+0+1+0) +1:16.5
06 6 16 Simon Eder Austria Austria 49:41.7 2 (1+1+0+0) +1:19.2
07 7 1 Tomasz Sikora Polonia Polonia 49:43.8 2 (1+1+0+0) +1:21.3
08 8 4 Christoph Sumann Austria Austria 50:04.9 3 (0+2+0+1) +1:42.4
09 9 49 Daniel Mesotitsch Austria Austria 50:32.0 2 (0+1+0+1) +2:09.5
10 17 Michael Greis Germania Germania 50:37.6 2 (0+2+0+0) +2:15.1
11 72 Nikolaj Kruglov Russia Russia 50:40.4 0 (0+0+0+0) +2:17.9
12 77 Andreas Birnbacher Germania Germania 50:43.5 2 (2+0+0+0) +2:21.0
13 3 Jean-Philippe Le Guellec Canada Canada 50:47.1 2 (0+1+1+0) +2:24.6
14 85 Martin Fourcade Francia Francia 50:55.4 3 (1+0+2+0) +2:32.9
15 28 Ivan Čerezov Russia Russia 50:56.7 3 (1+0+2+0) +2:34.2
16 26 Thomas Frei Svizzera Svizzera 51:03.4 2 (1+0+0+1) +2:40.9
17 35 Michal Šlesingr Rep. Ceca Repubblica Ceca 51:04.8 2 (0+0+1+1) +2:42.3
18 41 Dušan Šimočko Slovacchia Slovacchia 51:20.6 2 (0+0+2+0) +2:58.1
19 34 Zhang Chengye Cina Cina 51:31.0 3 (1+0+1+1) +3:08.5
20 86 Priit Viks Estonia Estonia 51:38.1 1 (1+0+0+0) +3:15.6
21 65 Tarjei Bø Norvegia Norvegia 51:51.5 1 (1+0+1+1) +3:29.0
22 48 Oleksandr Bilanenko Ucraina Ucraina 52:00.3 1 (0+1+0+0) +3:37.8
23 36 Dominik Landertinger Austria Austria 52:00.8 4 (0+2+1+1) +3:38.3
24 61 Alexander Wolf Germania Germania 52:09.0 2 (1+0+0+1) +3:46.5
25 2 Krasimir Anev Bulgaria Bulgaria 52:09.2 2 (0+2+0+0) +3:46.7
26 40 Vincent Defrasne Francia Francia 52:14.9 3 (0+1+2+0) +3:52.4
27 67 Andrij Deryzemlja Ucraina Ucraina 52:19.1 3 (0+2+0+1) +3:56.6
28 56 Alexander Os Norvegia Norvegia 52:19.8 3 (0+0+2+1) +3:57.3
29 39 Christoph Stephan Germania Germania 52:33.4 3 (1+0+0+2) +4:10.9
30 47 Jaroslav Soukup Rep. Ceca Repubblica Ceca 52:35.2 3 (0+2+1+0) +4:12.7
31 23 Markus Windisch Italia Italia 52:38.7 3 (0+3+0+0) +4:16.2
32 10 Klemen Bauer Slovenia Slovenia 52:43.9 3 (0+2+0+1) +4:21.4
33 66 Marek Matiaško Slovacchia Slovacchia 52:47.9 2 (0+1+0+1) +4:25.4
34 73 Mattias Nilsson Svezia Svezia 52:50.1 3 (1+1+0+1) +4:27.6
35 84 Roman Dostál Rep. Ceca Repubblica Ceca 52:51.4 3 (0+2+0+1) +4:28.9
36 51 Anton Šipulin Russia Russia 52:51.7 3 (3+0+0+0) +4:29.2
37 37 Edgars Piksons Lettonia Lettonia 52:52.5 2 (1+1+0+0) +4:30.0
38 80 Christian De Lorenzi Italia Italia 53:03.6 4 (1+0+2+1) +4:41.1
39 70 Matthias Simmen Svizzera Svizzera 53:05.7 4 (1+1+2+0) +4:43.2
40 75 Simon Fourcade Francia Francia 53:06.2 4 (3+0+0+1) +4:43.7
41 45 Aljaksandr Syman Bielorussia Bielorussia 53:16.2 3 (2+0+1+0) +4:53.7
42 32 Björn Ferry Svezia Svezia 53:16.7 5 (1+0+3+1) +4:54.2
43 46 Simon Hallenbarter Svizzera Svizzera 53:18.4 5 (1+0+1+3) +4:55.9
44 43 Kauri Kõiv Estonia Estonia 53:22.4 3 (1+0+1+1) +4:59.9
45 21 Tim Burke Stati Uniti Stati Uniti d'America 53:22.6 5 (1+1+0+3) +5:00.1
46 68 Lukas Hofer Italia Italia 53:23.7 3 (0+1+1+1) +5:01.2
47 87 Miroslav Matiaško Slovacchia Slovacchia 53:29.2 3 (1+1+0+1) +5:06.7
48 59 Rustam Valiulin Bielorussia Bielorussia 53:32.3 4 (1+1+0+2) +5:09.8
49 88 Vasja Rupnik Slovenia Slovenia 53:49.8 4 (1+1+1+1) +5:27.3
50 54 Aleksandr Červjakov Kazakistan Kazakistan 53:53.1 4 (0+0+0+4) +5:30.6
51 29 Jakov Fak Croazia Croazia 53:56.0 4 (1+1+0+2) +5:33.5
52 81 Serhij Semenov Ucraina Ucraina 53:57.5 3 (1+0+1+1) +5:35.0
53 24 Paavo Puurunen Finlandia Finlandia 54:03.5 4 (1+1+0+2) +5:41.0
54 53 René-Laurent Vuillermoz Italia Italia 54:19.7 4 (0+1+1+2) +5:57.2
55 74 Benjamin Weger Svizzera Svizzera 54:20.3 5 (1+1+2+1) +5:57.8
56 38 Timo Antila Finlandia Finlandia 54:22.7 5 (1+1+1+2) +6:00.2
57 42 Lowell Bailey Stati Uniti Stati Uniti d'America 54:23.1 4 (0+2+1+1) +6:00.6
58 76 Jaŭhen Abramenka Bielorussia Bielorussia 54:24.8 2 (0+1+0+1) +6:02.3
59 55 Łukasz Szczurek Polonia Polonia 54:36.7 3 (1+0+1+1) +6:14.2
60 69 Vincent Jay Francia Francia 54:37.5 4 (1+1+0+2) +6:15.0
61 52 Carl Johan Bergman Svezia Svezia 54:44.1 5 (2+1+0+2) +6:21.6
62 50 Janez Marič Slovenia Slovenia 54:46.4 5 (1+2+1+1) +6:23.9
63 44 Michail Klečerov Bulgaria Bulgaria 54:54.6 3 (1+1+1+0) +6:32.1
64 7 Jan Savickij Kazakistan Kazakistan 55:07.3 5 (0+1+2+2) +6:44.8
65 64 Roland Lessing Estonia Estonia 55:29.8 5 (3+0+1+1) +7:07.3
66 31 Lee-Steve Jackson Regno Unito Regno Unito 55:37.5 4 (1+2+1+0) +7:15.0
67 71 Zdeněk Vítek Rep. Ceca Repubblica Ceca 55:41.2 6 (2+1+1+2) +7:18.7
68 19 Serhij Sednjev Ucraina Ucraina 55:47.1 4 (0+3+0+1) +7:24.6
69 57 Aleksandr Trifonov Kazakistan Kazakistan 55:53.1 4 (2+1+1+0) +7:30.6
70 62 Kristaps Lībietis Lettonia Lettonia 56:02.4 3 (2+0+1+0) +7:39.9
71 30 Lee In-Bok Corea del Sud Corea del Sud 56:24.5 4 (2+0+0+2) +8:02.0
72 79 Dias Kenešev Kazakistan Kazakistan 56:27.0 4 (1+0+0+3) +8:04.5
73 14 Kaspars Dumbris Lettonia Lettonia 56:30.1 5 (2+0+2+1) +8:07.6
74 78 Ilmārs Bricis Lettonia Lettonia 56:33.9 6 (3+1+1+1) +8:11.4
75 63 Peter Dokl Slovenia Slovenia 56:41.9 2 (2+0+0+0) +8:19.4
76 58 Jay Hakkinen Stati Uniti Stati Uniti d'America 57:01.8 7 (2+1+2+2) +8:39.3
77 82 Fredrik Lindström Svezia Svezia 57:29.8 4 (1+2+0+1) +9:07.3
78 15 Alexei Almoukov Australia Australia 57:37.6 4 (1+1+2+0) +9:15.1
79 60 Vladimir Iliev Bulgaria Bulgaria 57:37.8 5 (2+1+1+1) +9:15.3
80 9 Athanasios Tsakiris Grecia Grecia 57:42.1 5 (2+0+1+2) +9:19.6
81 25 Martten Kaldvee Estonia Estonia 57:56.7 6 (1+1+2+2) +9:34.2
82 13 Imre Tagscherer Ungheria Ungheria 58:02.6 4 (1+3+0+0) +9:40.1
83 20 Hidenori Isa Giappone Giappone 58:06.2 9 (3+0+3+3) +9:43.7
84 83 Martin Bogdanov Bulgaria Bulgaria 58:29.6 4 (1+2+0+1) +10:07.1
85 8 Victor Pînzaru Moldavia Moldavia 58:42.6 3 (0+1+0+2) +10:20.1
86 18 Wynn Roberts Stati Uniti Stati Uniti d'America 58:49.2 8 (3+2+0+3) +10:26.7
87 33 Milanko Petrović Serbia Serbia 59:44.0 7 (2+1+2+2) +11:21.5
88 22 Øystein Slettemark Danimarca Danimarca 61:12.9 8 (2+1+2+3) +12:50.4
Olympic flag.svg Discipline ai XXI Giochi olimpici invernali (Vancouver 2010) Olympic flag.svg

Biathlon | Bob | Curling | Freestyle | Hockey su ghiaccio | Pattinaggio di figura | Pattinaggio di velocità | Sci alpino | Sci nordico (Combinata nordica | Salto con gli sci | Sci di fondo) | Short track | Skeleton | Slittino | Snowboard